Emporia, VA

7:01 AM EDT on October 17, 2019 (GMT -0400)
Emporia-Greensville Regional

Weather History for KEMV - September, 2019

Change the Weather History Date:

Saturday, September 21, 2019

  Actual Average Record
Temperature  
Mean Temperature 67 °F -  
Max Temperature 84 °F 81 °F 88 °F (1983)
Min Temperature 50 °F 58 °F 40 °F (1991)
Cooling Degree Days 2    
Growing Degree Days 17 (Base 50)    
Moisture  
Dew Point 57 °F    
Average Humidity 75    
Maximum Humidity 98    
Minimum Humidity 41    
Precipitation  
Precipitation 0.00 in - - ()
Sea Level Pressure  
Sea Level Pressure 30.26 in    
Wind  
Wind Speed 1 mph (SE)    
Max Wind Speed 9 mph    
Max Gust Speed -    
Visibility 10 miles    
Events      
Averages and records for this station are not official NWS values.
T = Trace of Precipitation, MM = Missing Value Source: NWS Daily Summary

Daily Weather History Graph

Daily Weather History Graph

Search for Another Location

Airport or City:

Astronomy

Sep. 21, 2019 Rise Set
Actual Time 6:56 AM EDT 7:08 PM EDT
Civil Twilight 6:30 AM EDT 7:34 PM EDT
Nautical Twilight 6:00 AM EDT 8:04 PM EDT
Astronomical Twilight 5:30 AM EDT 8:35 PM EDT
Moon 11:54 PM EDT (9/21) 1:50 PM EDT (9/21)
Length of Visible Light 13h 03m
Length of Day
12h 11m
Waning Gibbous, 55% of the Moon is Illuminated
Sep 21
Waning Gibbous
Sep 21
Last Quarter
Sep 28
New
Oct 5
First Quarter
Oct 13
Full

Hourly Weather History & Observations

Time (EDT) Temp. Heat Index Dew Point Humidity Pressure Visibility Wind Dir Wind Speed Gust Speed Precip Events Conditions
12:15 AM 52.9 °F - 52.3 °F 98% 30.29 in 10.0 mi Calm Calm - N/A   Clear
12:35 AM 52.5 °F - 52.0 °F 98% 30.29 in 10.0 mi Calm Calm - N/A   Clear
12:55 AM 52.5 °F - 51.8 °F 97% 30.29 in 10.0 mi Calm Calm - N/A   Clear
1:15 AM 51.6 °F - 50.4 °F 95% 30.30 in 10.0 mi Calm Calm - N/A   Clear
1:35 AM 52.7 °F - 51.8 °F 97% 30.29 in 10.0 mi Calm Calm - N/A   Clear
1:55 AM 52.7 °F - 51.4 °F 95% 30.29 in 10.0 mi Calm Calm - N/A   Clear
2:15 AM 52.2 °F - 51.1 °F 96% 30.29 in 10.0 mi Calm Calm - N/A   Clear
2:35 AM 51.1 °F - 49.6 °F 95% 30.29 in - Calm Calm - N/A   Unknown
2:55 AM 50.9 °F - 49.6 °F 95% 30.28 in 10.0 mi Calm Calm - N/A   Clear
3:15 AM 51.6 °F - 50.5 °F 96% 30.28 in 10.0 mi Calm Calm - N/A   Clear
3:35 AM 51.4 °F - 50.7 °F 97% 30.28 in 10.0 mi Calm Calm - N/A   Clear
3:55 AM 50.9 °F - 50.0 °F 97% 30.28 in 10.0 mi Calm Calm - N/A   Clear
4:15 AM 51.3 °F - 50.5 °F 97% 30.28 in - Calm Calm - N/A   Unknown
4:35 AM 50.7 °F - 49.8 °F 97% 30.28 in 10.0 mi Calm Calm - N/A   Clear
4:55 AM 50.4 °F - 49.6 °F 97% 30.28 in 10.0 mi Calm Calm - N/A   Clear
5:15 AM 51.8 °F - 50.5 °F 95% 30.28 in 10.0 mi Calm Calm - N/A   Clear
5:35 AM 50.4 °F - 49.6 °F 97% 30.28 in 10.0 mi Calm Calm - N/A   Clear
5:55 AM 50.5 °F - 49.6 °F 97% 30.28 in 10.0 mi Calm Calm - N/A   Clear
6:15 AM 50.9 °F - 50.0 °F 97% 30.28 in 10.0 mi Calm Calm - N/A   Clear
6:35 AM 50.7 °F - 49.8 °F 97% 30.28 in - Calm Calm - N/A   Unknown
6:55 AM 50.9 °F - 50.0 °F 97% 30.29 in 10.0 mi Calm Calm - N/A   Clear
7:15 AM 51.3 °F - 50.0 °F 95% 30.30 in - Calm Calm - N/A   Unknown
7:35 AM 52.5 °F - 51.1 °F 95% 30.30 in 10.0 mi Calm Calm - N/A   Clear
7:55 AM 54.5 °F - 52.5 °F 93% 30.30 in 10.0 mi Calm Calm - N/A   Clear
8:15 AM 55.6 °F - 53.4 °F 92% 30.30 in - Calm Calm - N/A   Unknown
8:35 AM 56.7 °F - 54.3 °F 92% 30.30 in 10.0 mi Calm Calm - N/A   Clear
8:55 AM 59.0 °F - 55.9 °F 90% 30.30 in 10.0 mi Calm Calm - N/A   Clear
9:15 AM 61.5 °F - 57.0 °F 85% 30.31 in 10.0 mi Calm Calm - N/A   Clear
9:35 AM 64.2 °F - 58.1 °F 80% 30.31 in 10.0 mi Calm Calm - N/A   Clear
9:55 AM 67.1 °F - 58.8 °F 75% 30.30 in 10.0 mi SSE 3.5 mph - N/A   Clear
10:15 AM 69.8 °F - 59.4 °F 69% 30.30 in - Calm Calm - N/A   Clear
11:15 AM 76.5 °F - 59.7 °F 56% 30.29 in 10.0 mi Calm Calm - N/A   Clear
11:35 AM 77.5 °F - 59.7 °F 54% 30.29 in 10.0 mi South 3.5 mph - N/A   Clear
11:55 AM 78.8 °F - 61.5 °F 55% 30.28 in 10.0 mi SE 4.6 mph - N/A   Clear
12:15 PM 79.3 °F - 61.7 °F 55% 30.28 in 10.0 mi ESE 5.8 mph - N/A   Clear
12:35 PM 80.4 °F 81.4 °F 61.3 °F 52% 30.27 in 10.0 mi South 5.8 mph - N/A   Clear
12:55 PM 82.0 °F 82.5 °F 60.4 °F 48% 30.26 in - SSE 6.9 mph - N/A   Clear
1:15 PM 82.8 °F 83.0 °F 60.1 °F 46% 30.26 in 10.0 mi South 5.8 mph - N/A   Clear
1:35 PM 82.8 °F 82.8 °F 59.4 °F 45% 30.25 in - ESE 8.1 mph - N/A   Clear
1:55 PM 83.7 °F 83.1 °F 57.9 °F 41% 30.25 in 10.0 mi SSE 5.8 mph - N/A   Clear
2:35 PM 83.3 °F 83.5 °F 60.4 °F 46% 30.24 in 10.0 mi ESE 4.6 mph - N/A   Clear
2:55 PM 83.8 °F 84.0 °F 60.6 °F 45% 30.23 in 10.0 mi ESE 4.6 mph - N/A   Clear
3:15 PM 84.6 °F 84.8 °F 60.8 °F 45% 30.23 in - SE 9.2 mph - N/A   Clear
3:35 PM 84.0 °F 84.2 °F 60.6 °F 45% 30.22 in 10.0 mi SE 8.1 mph - N/A   Clear
3:55 PM 84.4 °F 84.4 °F 60.1 °F 44% 30.21 in - SE 6.9 mph - N/A   Clear
4:15 PM 84.7 °F 84.8 °F 60.4 °F 44% 30.20 in 10.0 mi SE 9.2 mph - N/A   Clear
4:35 PM 84.2 °F 84.2 °F 60.3 °F 44% 30.20 in 10.0 mi SE 5.8 mph - N/A   Clear
4:55 PM 83.7 °F 83.9 °F 60.8 °F 46% 30.20 in 10.0 mi SSE 6.9 mph - N/A   Clear
5:15 PM 83.3 °F 83.7 °F 61.3 °F 47% 30.20 in 10.0 mi SE 6.9 mph - N/A   Clear
5:35 PM 82.4 °F 83.0 °F 61.3 °F 49% 30.20 in 10.0 mi SE 5.8 mph - N/A   Clear
5:55 PM 82.4 °F 82.9 °F 61.0 °F 48% 30.20 in 10.0 mi SE 5.8 mph - N/A   Clear
6:15 PM 81.7 °F 82.4 °F 61.3 °F 50% 30.20 in 10.0 mi SE 3.5 mph - N/A   Clear
6:35 PM 80.6 °F 81.7 °F 62.2 °F 53% 30.19 in 10.0 mi SE 3.5 mph - N/A   Clear
6:55 PM 78.6 °F - 62.6 °F 58% 30.19 in - Calm Calm - N/A   Clear
7:15 PM 77.0 °F - 62.6 °F 61% 30.20 in 10.0 mi SE 3.5 mph - N/A   Clear
7:35 PM 75.7 °F - 62.6 °F 64% 30.20 in 10.0 mi SE 3.5 mph - N/A   Clear
7:55 PM 75.2 °F - 62.2 °F 64% 30.20 in 10.0 mi SSE 3.5 mph - N/A   Clear
8:15 PM 73.8 °F - 62.2 °F 67% 30.21 in - ESE 3.5 mph - N/A   Clear
8:35 PM 72.0 °F - 62.6 °F 72% 30.21 in 10.0 mi ESE 3.5 mph - N/A   Clear
8:55 PM 71.4 °F - 62.4 °F 73% 30.21 in 10.0 mi SE 3.5 mph - N/A   Clear
9:15 PM 70.9 °F - 62.4 °F 75% 30.22 in 10.0 mi Calm Calm - N/A   Clear
9:35 PM 69.1 °F - 62.8 °F 80% 30.22 in 10.0 mi Calm Calm - N/A   Clear
9:55 PM 69.1 °F - 62.8 °F 80% 30.23 in 10.0 mi Calm Calm - N/A   Clear
10:15 PM 68.0 °F - 62.8 °F 83% 30.23 in 10.0 mi ESE 3.5 mph - N/A   Clear
10:35 PM 67.8 °F - 62.8 °F 84% 30.24 in 10.0 mi Calm Calm - N/A   Clear
10:55 PM 67.3 °F - 62.8 °F 85% 30.24 in 10.0 mi Calm Calm - N/A   Clear
11:15 PM 65.7 °F - 62.4 °F 89% 30.24 in 10.0 mi Calm Calm - N/A   Clear
11:35 PM 65.3 °F - 62.8 °F 92% 30.23 in 10.0 mi Calm Calm - N/A   Clear
11:55 PM 64.4 °F - 62.1 °F 92% 30.24 in 10.0 mi Calm Calm - N/A   Clear